PROBA-1 1 26958U 01049B 26072.60835157 .00003711 00000+0 24299-3 0 9996 2 26958 97.9641 77.8197 0057138 86.0672 274.7084 15.07056623329225 CUTE-1 (CO-55) 1 27844U 03031E 26072.49788693 .00000426 00000+0 20331-3 0 9996 2 27844 98.6777 82.2494 0010738 102.5935 257.6446 14.24269872178054 CUBESAT XI-IV (CO-57) 1 27848U 03031J 26071.52490780 .00000374 00000+0 18335-3 0 9993 2 27848 98.6808 81.0787 0010480 121.3489 238.8716 14.23563697177626 APRIZESAT 4 1 35684U 09041D 26072.16168998 .00000989 00000+0 12489-3 0 9997 2 35684 98.1479 145.5556 0042052 273.0813 86.5589 14.83716586897121 APRIZESAT 3 1 35686U 09041F 26072.32325631 .00001478 00000+0 13291-3 0 9992 2 35686 98.1899 221.0514 0062504 24.4757 335.9408 14.95913782902041 PROBA-2 1 36037U 09059B 26072.50299094 .00000354 00000+0 93180-4 0 9993 2 36037 98.2435 257.1830 0012545 211.7672 148.2770 14.54794522867611 APRIZESAT 5 1 37792U 11044E 26072.26920249 .00001611 00000+0 21157-3 0 9996 2 37792 98.2402 2.6371 0051454 312.7639 46.9249 14.80870420784595 APRIZESAT 6 1 37793U 11044F 26072.55932007 .00001167 00000+0 17187-3 0 9998 2 37793 98.2414 341.0925 0044038 33.3885 88.9088 14.76762345783039 PROBA-V 1 39159U 13021A 26072.39062188 .00000124 00000+0 72448-4 0 9993 2 39159 98.3510 55.7661 0005218 61.3593 298.8111 14.23574881667482 APRIZESAT 7 1 39416U 13066A 26072.28142697 .00001911 00000+0 19525-3 0 9991 2 39416 97.7601 26.9576 0036276 166.9075 193.3094 14.91296482666933 APRIZESAT 8 1 39425U 13066K 26072.28724411 .00001466 00000+0 16531-3 0 9990 2 39425 97.8121 21.1656 0044725 240.7060 118.9683 14.87435912665417 BUGSAT-1 (TITA) 1 40014U 14033E 26072.60249911 .00005823 00000+0 31645-3 0 9998 2 40014 98.0423 159.6490 0029475 145.3481 214.9677 15.14554752641369 SAUDISAT 4 1 40016U 14033G 26072.41811294 .00000938 00000+0 13052-3 0 9992 2 40016 97.7420 221.9503 0045460 26.7513 333.6030 14.79397912631917 APRIZESAT 9 1 40018U 14033J 26072.36603232 .00001192 00000+0 18220-3 0 9994 2 40018 97.8886 207.9994 0067068 147.4784 213.0584 14.74083719629445 APRIZESAT 10 1 40019U 14033K 26072.34084234 .00001014 00000+0 16680-3 0 9999 2 40019 97.9484 201.5307 0078172 219.1141 140.4399 14.70760100628168 TECHDEMOSAT-1 (TDS-1) 1 40076U 14037H 26072.36450947 .00010663 00000+0 63071-3 0 9992 2 40076 98.3777 55.2290 0005167 220.6273 139.4570 15.11659597633745 TECHNOSAT 1 42829U 17042E 26072.41927998 .00003589 00000+0 26075-3 0 9992 2 42829 97.4146 233.8258 0019209 63.5823 296.7372 15.04316532472309 FLYING LAPTOP 1 42831U 17042G 26072.64576269 .00002390 00000+0 19325-3 0 9990 2 42831 97.4280 232.1434 0019567 83.0067 277.3382 15.00545800472127 HAWK-A 1 43765U 18099H 26072.61771517 .00008997 00000+0 37603-3 0 9998 2 43765 97.4050 126.1312 0034249 261.0594 98.6765 15.23300042398547 HAWK-B 1 43794U 18099AN 26072.59404299 .00007632 00000+0 33684-3 0 9997 2 43794 97.4097 125.7147 0031224 279.0901 80.6802 15.21597308398490 HAWK-C 1 43799U 18099AT 26072.14697255 .00009126 00000+0 34449-3 0 9999 2 43799 97.4026 126.1254 0040362 264.7111 94.9521 15.26477771399255 SALSAT 1 46495U 20068K 26072.47071752 .00011094 00000+0 40525-3 0 9997 2 46495 97.8859 69.8211 0008092 280.4090 79.6236 15.28268439300739 HAWK-2C 1 47502U 21006CT 26072.06950228 .00007878 00000+0 24670-3 0 9997 2 47502 97.2417 118.3212 0007300 172.7721 187.3629 15.33342511284766 HAWK-2A 1 47505U 21006CW 26072.07297251 .00007879 00000+0 24661-3 0 9992 2 47505 97.2458 118.9454 0006841 175.3087 184.8221 15.33360863284761 HAWK-2B 1 47508U 21006CZ 26072.06980906 .00008479 00000+0 26516-3 0 9998 2 47508 97.2334 117.4354 0007500 173.6226 186.5113 15.33358674284765 HAWK-3B 1 48931U 21059BE 26072.45843826 .00038682 00000+0 44511-3 0 9993 2 48931 97.6725 260.6537 0005031 323.0968 36.9942 15.61897242262875 HAWK-3C 1 48948U 21059BX 26072.58631767 .00043468 00000+0 49937-3 0 9999 2 48948 97.6872 266.2997 0005389 324.2873 35.8023 15.61913432262892 HAWK-3A 1 48957U 21059CG 26072.32989221 .00041098 00000+0 47284-3 0 9992 2 48957 97.6807 263.3066 0005098 323.9137 36.1775 15.61888868262859 HAWK-5C 1 52754U 22057Y 26072.40969967 .00022471 00000+0 43519-3 0 9996 2 52754 97.6453 226.2513 0005465 63.5068 296.6742 15.47719790211514 HAWK-5B 1 52756U 22057AA 26072.40956916 .00022331 00000+0 43251-3 0 9996 2 52756 97.6455 224.5913 0005299 57.8211 302.3552 15.47719127211512 HAWK-5A 1 52757U 22057AB 26072.34464116 .00022762 00000+0 44083-3 0 9998 2 52757 97.6456 225.3571 0005752 61.0200 299.1626 15.47715782211509 HAWK-6B 1 55324U 23011A 26072.34777546 .00006066 00000+0 26862-3 0 9990 2 55324 40.5094 190.6796 0001474 64.5909 295.5053 15.21961405173239 HAWK-6C 1 55326U 23011C 26072.34719620 .00007253 00000+0 31946-3 0 9999 2 55326 40.4866 187.5437 0002003 42.8904 317.2061 15.21965982173243 HAWK-6A 1 55327U 23011D 26072.34719575 .00006559 00000+0 28975-3 0 9995 2 55327 40.4975 189.1545 0001626 37.6069 322.4854 15.21962872173240 HAWK-7A 1 56191U 23054P 26072.62287607 .00007865 00000+0 30605-3 0 9993 2 56191 97.2830 322.3915 0004000 41.6555 318.4988 15.26268501162442 HAWK-7B 1 56193U 23054R 26072.62280415 .00008059 00000+0 31354-3 0 9993 2 56193 97.2859 320.6194 0003500 53.6713 306.4849 15.26267859162446 HAWK-7C 1 56200U 23054Y 26072.62268494 .00007845 00000+0 30530-3 0 9992 2 56200 97.2832 321.4192 0003374 44.4488 315.7021 15.26267655162448